Regional Weather Roundup
Issued by NWS

Home | Current Version | Previous Version | Text Only | Print | Product List | Glossary On
Versions: 1 2 3 4 5 6 7 8 9 10 11 12 13 14 15 16 17 18 19 20 21 22 23 24 25 26 27 28
000
ASUS45 KTFX 261810
RWRMT
MONTANA REGIONAL WEATHER ROUNDUP
NATIONAL WEATHER SERVICE GREAT FALLS MT
1100 AM MST SUN FEB 26 2017

NOTE: "FAIR" INDICATES FEW OR NO CLOUDS BELOW 12000 FEET WITH NO
SIGNIFICANT WEATHER AND/OR OBSTRUCTIONS TO VISIBILITY.

MTZ001>007-043-261900-
WEST OF THE DIVIDE

CITY           SKY/WX    TMP DP  RH WIND       PRES   REMARKS
KALISPELL      SNOW      24  21  88 NE15      29.72S VSB 1/2 WCI  11
MISSOULA       CLOUDY    29  23  78 E12       29.73F WCI  19
BUTTE          CLOUDY    23   9  55 S7        29.66F WCI  15
MULLAN PASS    LGT SNOW  17  15  92 CALM      29.56S VSB 3/4
ANACONDA         N/A     27  10  50 S8        29.68S WCI  18
DEER LODGE       N/A     27  16  63 S5        29.71S
EUREKA           N/A     27  23  86 W5        29.73S
HAMILTON         N/A     30  18  59 S10       29.70F WCI  21
LIBBY            N/A     28  25  86 CALM      29.70F
PLAINS           N/A     30  24  78 CALM      29.75F
RONAN            N/A     29  24  81 SE1       29.77S
$$

MTZ008-052>055-261900-
SOUTHWEST MONTANA

CITY           SKY/WX    TMP DP  RH WIND       PRES   REMARKS
BOZEMAN        CLOUDY    28  17  63 NE10      29.72F WCI  19
DILLON         CLOUDY    27   7  42 SW12      29.68F WCI  17
W YELLOWSTONE  CLOUDY    14   7  73 S16       29.74S HAZE    WCI  -2
ENNIS          SUNNY     25   7  46 S22       29.76F WCI  10
THREE FORKS      N/A     28  28 100 SW20      29.74F WCI  15
TWIN BRIDGES     N/A     24  12  60 E7        29.74F WCI  16
$$

MTZ009-010-012-014-046-048-049-054-261900-
EAST SLOPES AND CENTRAL MONTANA

CITY           SKY/WX    TMP DP  RH WIND       PRES   REMARKS
CUT BANK       CLOUDY    18  11  74 N16       29.78S WCI   3
GREAT FALLS    LGT SNOW  23  19  85 NE12      29.74S VSB 3/4 WCI  12
MALMSTROM AFB  LGT SNOW  23  19  86 NE13      29.76S WCI  11
HELENA         CLOUDY    29  21  72 W5        29.71F
AUGUSTA        LGT SNOW  17  15  90 N24       29.71S VSB 5/8 WCI  -1
BOWMANS CRNR   SNOWSHWR  17  15  92 N20G28    29.69R VSB 3/8 WCI   1
CHOTEAU          N/A     21  18  86 N16G23    29.78R HAZE    WCI   7
CONRAD           N/A     20  16  84 N13       29.82R WCI   7
POWER          LGT SNOW  20  16  86 N18       29.74R WCI   4
RAYNESFORD     LGT SNOW  22  20  92 NW6       29.72S VSB 1   WCI  15
ULM            LGT SNOW  24  21  89 MISG      29.73S
$$

MTZ011-013-016-021-045-047-050-051-261900-
NORTH CENTRAL MONTANA

CITY           SKY/WX    TMP DP  RH WIND       PRES   REMARKS
HAVRE          CLOUDY    25  14  63 N9        29.82R WCI  15
LEWISTOWN      LGT SNOW  22  18  85 CALM      29.72S FOG
N BAR RANCH    PTSUNNY   23  14  68 NW14      29.73S WCI  11
CHINOOK          N/A     25  12  58 NW9       29.83R WCI  15
DENTON         PTSUNNY   24  20  85 N5        29.72R
FORT BENTON      N/A     25  19  80 MISG      29.81S
GEYSER         LGT SNOW  22  19  88 NE7       29.71S VSB 1   WCI  13
GRASS RANGE    PTSUNNY   24  19  80 W8        29.70S WCI  16
JUDITH GAP     LGT SNOW  20  17  86 N9        29.69S FOG     WCI  10
ROY            PTSUNNY   25  18  73 MISG      29.73S
STANFORD       PTSUNNY   23  18  82 NE6       29.70S FOG     WCI  15
WINIFRED       PTSUNNY   24  17  76 W6        29.73S WCI  17
$$

MTZ017>020-022>027-061-062-261900-
NORTHEAST MONTANA

CITY           SKY/WX    TMP DP  RH WIND       PRES   REMARKS
GLASGOW        MOSUNNY   23  17  78 NW13      29.77R WCI  11
JORDAN           N/A     28  19  69 NW15      29.76R WCI  16
SIDNEY         CLOUDY    26  20  77 N6        29.75R WCI  19
WOLF POINT     CLOUDY    24  16  71 NW7       29.78R WCI  16
PLENTYWOOD       N/A     16  12  86 W5        29.75R
POPLAR           N/A     19  14  79 W8        29.77R WCI   9
SCOBEY           N/A     19   8  62 SW5       29.73R
$$

MTZ028>42-056>058-261900-
SOUTHCENTRAL AND SOUTHEAST MONTANA

CITY           SKY/WX    TMP DP  RH WIND       PRES   REMARKS
BAKER          FLURRIES  30  20  66 W23G30    29.70S WCI  17
BILLINGS       PTSUNNY   31  10  41 W9        29.75S WCI  23
LIVINGSTON     MOSUNNY   28   9  44 SW30G38   29.69S WCI  12
MILES CITY     CLOUDY    34  18  52 NW21      29.74R WCI  22
BIG TIMBER     SUNNY     28  12  50 W14       29.73F WCI  17
EKALAKA          N/A     31  16  54 W18       29.70S WCI  19
FORSYTH          N/A     32  18  55 W14G20    29.75S WCI  22
HARLOWTON      PTSUNNY   29  17  61 W20       29.69S WCI  16
LAUREL           N/A     30  10  43 S8        29.74F WCI  22
$$

REGIONAL REPORTS...DAKOTAS

CITY           SKY/WX    TMP DP  RH WIND       PRES   REMARKS
WILLISTON      PTSUNNY   21  14  74 CALM      29.76R
MINOT          MOSUNNY   19   9  65 W6        29.77S WCI  11
DICKINSON      PTSUNNY   27  21  78 W17       29.67R WCI  14
BEACH            N/A    N/A N/A N/A MISG        N/A
CROSBY           N/A     21  16  79 SW10      29.77S WCI  10
TIOGA          PTSUNNY   16  16 100 SW3       29.75S
WATFORD CITY   FLURRIES  19  16  86 CALM      29.74R
BISMARCK       CLOUDY    18  12  77 SE5       29.80S
GRAND FORKS    SUNNY     16   1  51 W8        29.86S WCI   5
FARGO          MOSUNNY   18   9  68 MISG      29.88R
BUFFALO SD       N/A     33  19  56 NW26      29.65S WCI  20
RAPID CITY     MOSUNNY   36  15  42 SW9       29.77S WCI  29
$$

REGIONAL REPORTS...WYOMING/IDAHO/WASHINGTON

CITY           SKY/WX    TMP DP  RH WIND       PRES   REMARKS
GILLETTE       SUNNY     29  11  47 SW9       29.74F WCI  20
SHERIDAN       CLOUDY    32  11  41 S7G17     29.74F WCI  26
BUFFALO WY     CLOUDY    28   6  39 SE6       29.72F WCI  22
CODY           CLOUDY    27   2  34 W10       29.72F WCI  17
YELLOWSTONE LA   N/A     13   5  70 VRB6      29.70S WCI   4
IDAHO FALLS    CLOUDY    19  13  77 NW5       29.86S
SALMON         CLOUDY    30  10  43 S8G17     29.73F WCI  23
BOISE          CLOUDY    36  16  44 SE20      29.81F WCI  25
SPOKANE        LGT SNOW  30  27  88 SE3       29.71F FOG
$$

REGIONAL REPORTS...ALBERTA

CITY           SKY/WX    TMP DP  RH WIND       PRES   REMARKS
EDMONTON       CLOUDY     5   0  78 N14G20    29.94R WCI -12
CALGARY        LGT SNOW  14   7  73 NE17      29.82S WCI  -3
LETHBRIDGE     PTSUNNY   19   9  63 N7        29.85F WCI  10
MEDICINE HAT   LGT SNOW  21  18  86 W12       29.85R WCI   9
WATERTON GATE    N/A     16  10  79 N9          N/A  WCI   4
CARDSTON         N/A     18  12  79 NE8         N/A  WCI   7
MILK RIVER       N/A     18  12  79 N15         N/A  WCI   3
$$

REGIONAL REPORTS...SASKATCHEWAN

CITY           SKY/WX    TMP DP  RH WIND       PRES   REMARKS
SWIFT CURRENT  CLOUDY    18  12  79 NW17      29.73R WCI   2
REGINA         PTSUNNY   21  12  68 NW16G22   29.72R WCI   7
SASKATOON      LGT SNOW  16  10  79 VRB2      29.76F
CYPRESS HILLS    N/A     10   7  85 NW12G18     N/A  WCI  -4
VAL MARIE        N/A     21  12  68 N16         N/A  WCI   7
ROCKGLEN         N/A     18  14  86 NW13        N/A  WCI   4
ASSINIBOIA       N/A      7  -4  61 N18G24      N/A  WCI -12
$$




USA.gov is the U.S. government's official web portal to all federal, state and local government web resources and services.